weather.gov     
National Weather Service

Regional Weather Roundup
NWS Homepage
This page is being discontinued on March 12, 2014.
The same data is available at this site. Please update your bookmarks.
Thank you, and we apologize for the inconvenience.
Please send an email to SR-SRH.Webmaster@noaa.gov with any concerns.


Current Version
Previous Version:    01  02  03  04  05  06  07  08  09  10  11  12  13  14  15  16  17  18  19  20  21  22  23  24  25  26  
[Printable]
624
ASUS42 KFFC 190403
RWRGA
WEATHER ROUNDUP FOR GEORGIA
NATIONAL WEATHER SERVICE PEACHTREE CITY GA
1200 AM EDT SAT APR 19 2014

NOTE: "FAIR" INDICATES FEW OR NO CLOUDS BELOW 12,000 FEET WITH NO
SIGNIFICANT WEATHER AND/OR OBSTRUCTIONS TO VISIBILITY.

* = USE WITH CAUTION. THE STATIONS MARKED WITH AN ASTERISK MAY NOT
REPORT WEATHER SUCH AS PRECIPITATION, FOG, OR THUNDER AND ARE NOT
QUALITY CONTROLLED BY NWS.

THE REMARK "TC" DENOTES TEMPERATURE READING IN DEGREES CELSIUS.

GAZ001>058-190500-
NORTH GEORGIA

CITY           SKY/WX    TMP DP  RH WIND       PRES   REMARKS
ATLANTA        LGT RAIN  50  48  93 NE17      30.12F
ATHENS         LGT RAIN  49  47  93 NE10G17   30.12F
CHAMBLEE       LGT RAIN  50  46  86 NE10G17   30.13F
PEACHTREE CITY LGT RAIN  50  48  93 VRB5      30.12S
ROME           LGT RAIN  51  51 100 N3        30.16F
WEST ATLANTA   LGT RAIN  51  48  89 NE10      30.12F
GAINESVILLE    LGT RAIN  49  48  97 NE9       30.16F
CARTERSVILLE   CLOUDY    51  49  92 CALM      30.16F


CITY           SKY/WX    TMP DP  RH WIND       PRES   REMARKS
DALTON*        CLOUDY    52  52 100 CALM      30.17S
MARIETTA       DRIZZLE   50  50  98 VRB7      30.13F
$$

GAZ059>098-102>109-190500-
CENTRAL GEORGIA

CITY           SKY/WX    TMP DP  RH WIND       PRES   REMARKS
AUGUSTA-BUSH   RAIN      52  50  93 N10       30.05S FOG
AUGUSTA-DANIEL HVY RAIN  53  51  93 N12G20    30.05F FOG
COLUMBUS       LGT RAIN  53  50  89 NE10G16   30.05F
MACON          LGT RAIN  50  49  96 NE20G31   30.03F
ROBINS AFB     LGT RAIN  51  50  95 N10G25    30.02F


CITY           SKY/WX    TMP DP  RH WIND       PRES   REMARKS
LAGRANGE*      RAIN      51  50  95 NE7       30.11R
SYLVANIA*      RAIN      57  54  91 NE9       30.00F
MILLEDGEVILLE* RAIN      52  52 100 N5        30.09S
$$

GAZ099>101-110>166-190500-
SOUTH GEORGIA

CITY           SKY/WX    TMP DP  RH WIND       PRES   REMARKS
SAVANNAH       LGT RAIN  60  58  92 NE8       29.96S
VALDOSTA       LGT RAIN  61  56  83 N9        29.92S
ALMA           CLOUDY    56  53  90 N3        29.95S FOG
ST SIMONS      LGT RAIN  62  61  96 CALM      29.93S
FT STEWART     CLOUDY    58  58 100 N5        29.94F
ALBANY         LGT RAIN  54  52  93 N12G18    30.01R
HUNTER AFB     CLOUDY    61  60  96 NE8       29.93F
MOODY AFB      LGT RAIN  57  57 100 N10       29.93R FOG
BRUNSWICK      CLOUDY    61  61 100 CALM      29.95R


CITY           SKY/WX    TMP DP  RH WIND       PRES   REMARKS
BAINBRIDGE*    CLOUDY    59  55  88 N10       29.97S
MOULTRIE*      CLOUDY    55  55 100 N8        29.96S FOG
VIDALIA*       DRIZZLE   54  54 100 NE9       29.98S
DOUGLAS*       CLOUDY    55  55 100 NE8       29.98R
$$




U.S. Dept. of Commerce
NOAA National Weather Service
1325 East West Highway
Silver Spring, MD 20910
E-mail: w-nws.webmaster@noaa.gov
Page last modified: May 16, 2007
NATIONAL WEATHER SERVICE: for Safety, for Work, for Fun - FOR LIFE